Regional Weather Roundup
Issued by NWS Jackson, KY

Home | Current Version | Previous Version | Graphics & Text | Print | Product List | Glossary On
Versions: 1 2 3 4 5 6 7 8 9 10 11 12 13 14 15 16 17 18 19 20 21 22 23 24 25 26 27 28 29 30 31 32 33 34 35 36 37 38 39 40 41 42 43 44 45 46 47 48 49 50
000
ASUS43 KJKL 280611
RWRJKL

EAST KENTUCKY HOURLY WEATHER ROUNDUP
NATIONAL WEATHER SERVICE JACKSON KY
100 AM EST FRI NOV 28 2014

NOTE: "FAIR" INDICATES FEW OR NO CLOUDS BELOW 12,000 FEET WITH
NO SIGNIFICANT WEATHER AND/OR OBSTRUCTIONS TO VISIBILITY.

* THESE REPORTS ARE NOT UNDER NWS QUALITY CONTROL AND MAY NOT
  REPORT WEATHER SUCH AS PRECIPITATION AND FOG.

KYZ079-080-083-085-087-088-110-112-115-119-120-280700
...EASTERN KENTUCKY...

CITY           SKY/WX    TMP DP  RH WIND       PRES   REMARKS
JACKSON        CLOUDY    28  20  71 W7        30.35S WCI  21
6HR MIN TEMP:  28; 6HR MAX TEMP:  30; 6HR PCP: TRACE;

LONDON         CLOUDY    28  19  69 W10       30.39S WCI  19
6HR MIN TEMP:  28; 6HR MAX TEMP:  31; 6HR PCP: TRACE;

SOMERSET*      CLOUDY    28  19  69 CALM      30.43S
MONTICELLO*    CLOUDY    29  22  75 NW3       30.44F
6HR MIN TEMP:  29; 6HR MAX TEMP:  31; 6HR PCP: TRACE;

HARLAN APT*    CLOUDY    28  23  80 NW5       30.34F WCI  23
HAZARD APT*    CLOUDY    30  21  69 W5        30.36F WCI  25
BLACK MTN*       N/A     18  18 100 CALM        N/A
PIKEVILLE APT* FLURRIES  28  25  86 CALM      30.33S
BIG SANDY*     FLURRIES  29  27  90 CALM      30.34F
6HR MIN TEMP:  29; 6HR MAX TEMP:  31;

MOREHEAD APT*  CLOUDY    28  21  74 VRB6G13   30.39S WCI  22
$$

KYZ035-036-041-042-044-050-067-078-099-280700
...CENTRAL KENTUCKY...

CITY           SKY/WX    TMP DP  RH WIND       PRES   REMARKS
MT STERLING*   CLOUDY    28  21  74 NW3       30.40S
FLEMING/MASON* CLOUDY    27  19  74 NW9G16    30.39S WCI  17
DANVILLE*      CLOUDY    28  21  74 W3        30.41F
RICHMOND*      CLOUDY    27  19  74 W8        30.40S WCI  18
LEXINGTON      CLOUDY    27  16  63 W8        30.40S WCI  19
6HR MIN TEMP:  27; 6HR MAX TEMP:  30;

FRANKFORT      CLOUDY    28  19  69 W3        30.40S
6HR MIN TEMP:  28; 6HR MAX TEMP:  31;

$$

KYZ091>093-OHZ055-061-077-WVZ005-015-034-035-042-280700
...SOUTHERN OHIO/WEST VIRGINIA...

CITY           SKY/WX    TMP DP  RH WIND       PRES   REMARKS
COVINGTON      FLURRIES  27  14  58 W7        30.38F WCI  19
COLUMBUS       CLOUDY    28  20  71 W13       30.33S WCI  17
DAYTON         CLOUDY    25  18  74 W10       30.36F WCI  15
WILMINGTON     LGT SNOW  26  20  77 NW6       30.35S WCI  19
HUNTINGTON     FLURRIES  30  24  78 W9        30.35S WCI  22
CHARLESTON     FLURRIES  30  25  81 W8        30.32F WCI  22
PINEVILLE*     LGT SNOW  30  28  90 MISG      30.33S
BECKLEY        FLURRIES  24  19  81 NW9       30.22S WCI  14
BLUEFIELD      FLURRIES  25  18  74 NW12G21   30.21S WCI  14
$$

VAZ002-007-008-TNZ017-027-036-066-071-280700
...SOUTHWEST VIRGINIA/EAST TENNESSEE...

CITY           SKY/WX    TMP DP  RH WIND       PRES   REMARKS
WISE*          FLURRIES  27  19  74 NW6       30.27S WCI  20
JONESVILLE*    CLOUDY    28  23  80 W6        30.37S WCI  22
ABINGDON*      CLOUDY    29  23  78 N7        30.28S WCI  22
BRISTOL        CLOUDY    30  19  63 W8        30.33F WCI  22
KNOXVILLE      CLOUDY    31  24  75 W5        30.39F WCI  26
OAK RIDGE      CLOUDY    32  22  66 W6        30.41F WCI  26
CROSSVILLE     CLOUDY    26  16  65 N8        30.36F WCI  18
NASHVILLE      CLEAR     27  20  75 N5        30.46F WCI  22
$$

...KEY TO REMARKS...
VSB - VISIBILITY IN MILES
WCI - WIND CHILL INDEX
HX  - HEAT INDEX

$$


USA.gov is the U.S. government's official web portal to all federal, state and local government web resources and services.